Time,TemperatureF,DewpointF,PressureIn,WindDirection,WindDirectionDegrees,WindSpeedMPH,WindSpeedGustMPH,Humidity,HourlyPrecipIn,Conditions,Clouds,dailyrainin,SoftwareType,DateUTC
2014-01-28 00:02:00,47.6,38.3,29.96,North,5,0.0,4.0,70,0.00,,,0.00,VWS V13.01,2014-01-28 06:02:00,
2014-01-28 00:07:00,47.5,37.1,29.96,North,5,0.0,4.0,67,0.00,,,0.00,VWS V13.01,2014-01-28 06:07:00,
2014-01-28 00:12:00,47.4,37.0,29.96,North,5,0.0,5.0,67,0.00,,,0.00,VWS V13.01,2014-01-28 06:12:00,
2014-01-28 00:17:00,47.2,36.8,29.97,North,5,0.0,5.0,67,0.00,,,0.00,VWS V13.01,2014-01-28 06:17:00,
2014-01-28 00:22:00,47.0,37.0,29.97,North,360,0.0,5.0,68,0.00,,,0.00,VWS V13.01,2014-01-28 06:22:00,
2014-01-28 00:27:00,46.9,36.2,29.97,North,5,1.0,5.0,66,0.00,,,0.00,VWS V13.01,2014-01-28 06:27:00,
2014-01-28 00:32:00,46.8,36.0,29.96,North,5,0.0,10.0,66,0.00,,,0.00,VWS V13.01,2014-01-28 06:32:00,
2014-01-28 00:37:00,46.7,35.6,29.96,North,5,2.0,10.0,65,0.00,,,0.00,VWS V13.01,2014-01-28 06:37:00,
2014-01-28 00:42:00,46.5,34.6,29.96,North,5,0.0,10.0,63,0.00,,,0.00,VWS V13.01,2014-01-28 06:42:00,
2014-01-28 00:47:00,46.3,34.4,29.96,North,5,0.0,10.0,63,0.00,,,0.00,VWS V13.01,2014-01-28 06:47:00,
2014-01-28 00:52:00,46.1,34.6,29.96,North,5,0.0,10.0,64,0.00,,,0.00,VWS V13.01,2014-01-28 06:52:00,
2014-01-28 00:57:00,46.0,34.5,29.96,North,5,0.0,0.0,64,0.00,,,0.00,VWS V13.01,2014-01-28 06:57:00,
2014-01-28 01:02:00,45.8,34.7,29.94,North,5,0.0,3.0,65,0.00,,,0.00,VWS V13.01,2014-01-28 07:02:00,
2014-01-28 01:07:00,45.6,34.5,29.94,North,5,0.0,5.0,65,0.00,,,0.00,VWS V13.01,2014-01-28 07:07:00,
2014-01-28 01:12:00,45.3,35.0,29.94,North,360,0.0,5.0,67,0.00,,,0.00,VWS V13.01,2014-01-28 07:12:00,
2014-01-28 01:17:00,45.0,33.6,29.95,North,5,0.0,5.0,64,0.00,,,0.00,VWS V13.01,2014-01-28 07:17:00,
2014-01-28 01:22:00,44.8,32.2,29.95,North,5,0.0,5.0,61,0.00,,,0.00,VWS V13.01,2014-01-28 07:22:00,
2014-01-28 01:27:00,44.6,32.0,29.95,North,5,0.0,9.0,61,0.00,,,0.00,VWS V13.01,2014-01-28 07:27:00,
2014-01-28 01:32:00,44.4,31.8,29.97,North,5,0.0,3.0,61,0.00,,,0.00,VWS V13.01,2014-01-28 07:32:00,
2014-01-28 01:37:00,44.2,32.4,29.97,North,5,0.0,3.0,63,0.00,,,0.00,VWS V13.01,2014-01-28 07:37:00,
2014-01-28 01:42:00,44.0,32.2,29.97,North,5,0.0,5.0,63,0.00,,,0.00,VWS V13.01,2014-01-28 07:42:00,
2014-01-28 01:47:00,44.0,31.4,29.97,North,5,0.0,7.0,61,0.00,,,0.00,VWS V13.01,2014-01-28 07:47:00,
2014-01-28 01:52:00,43.8,31.2,29.97,North,360,0.0,7.0,61,0.00,,,0.00,VWS V13.01,2014-01-28 07:52:00,
2014-01-28 01:57:00,43.7,30.7,29.97,North,5,0.0,0.0,60,0.00,,,0.00,VWS V13.01,2014-01-28 07:57:00,
2014-01-28 02:00:00,71.9,56.3,29.98,North,0,0.0,5.0,58,0.00,,,0.00,VWS V13.01,2014-01-28 08:00:00,
2014-01-28 02:02:00,43.5,29.7,29.96,North,5,0.0,2.0,58,0.00,,,0.00,VWS V13.01,2014-01-28 08:02:00,
2014-01-28 02:07:00,43.2,29.0,29.96,North,5,0.0,3.0,57,0.00,,,0.00,VWS V13.01,2014-01-28 08:07:00,
2014-01-28 02:12:00,43.1,28.9,29.96,North,5,0.0,5.0,57,0.00,,,0.00,VWS V13.01,2014-01-28 08:12:00,
2014-01-28 02:17:00,42.9,28.7,29.97,North,5,0.0,5.0,57,0.00,,,0.00,VWS V13.01,2014-01-28 08:17:00,
2014-01-28 02:22:00,42.7,28.1,29.97,North,360,4.0,5.0,56,0.00,,,0.00,VWS V13.01,2014-01-28 08:22:00,
2014-01-28 02:27:00,42.5,28.4,29.97,North,5,0.0,5.0,57,0.00,,,0.00,VWS V13.01,2014-01-28 08:27:00,
2014-01-28 02:32:00,42.3,26.9,29.97,North,5,0.0,3.0,54,0.00,,,0.00,VWS V13.01,2014-01-28 08:32:00,
2014-01-28 02:37:00,42.2,27.2,29.97,North,5,0.0,5.0,55,0.00,,,0.00,VWS V13.01,2014-01-28 08:37:00,
2014-01-28 02:42:00,42.0,25.7,29.97,North,5,0.0,5.0,52,0.00,,,0.00,VWS V13.01,2014-01-28 08:42:00,
2014-01-28 02:47:00,41.9,25.1,29.96,North,5,0.0,6.0,51,0.00,,,0.00,VWS V13.01,2014-01-28 08:47:00,
2014-01-28 02:52:00,41.7,25.4,29.96,North,360,0.0,6.0,52,0.00,,,0.00,VWS V13.01,2014-01-28 08:52:00,
2014-01-28 02:57:00,41.6,24.8,29.96,North,360,11.0,11.0,51,0.00,,,0.00,VWS V13.01,2014-01-28 08:57:00,
2014-01-28 03:02:00,41.5,25.2,29.96,North,350,0.0,4.0,52,0.00,,,0.00,VWS V13.01,2014-01-28 09:02:00,
2014-01-28 03:07:00,41.3,24.5,29.96,North,5,0.0,10.0,51,0.00,,,0.00,VWS V13.01,2014-01-28 09:07:00,
2014-01-28 03:12:00,41.2,24.9,29.96,North,5,0.0,10.0,52,0.00,,,0.00,VWS V13.01,2014-01-28 09:12:00,
2014-01-28 03:17:00,41.1,23.9,29.96,North,5,0.0,10.0,50,0.00,,,0.00,VWS V13.01,2014-01-28 09:17:00,
2014-01-28 03:22:00,41.0,24.3,29.96,SSE,148,0.0,10.0,51,0.00,,,0.00,VWS V13.01,2014-01-28 09:22:00,
2014-01-28 03:27:00,40.9,24.2,29.96,North,9,0.0,10.0,51,0.00,,,0.00,VWS V13.01,2014-01-28 09:27:00,
2014-01-28 03:32:00,40.8,24.5,29.95,North,5,0.0,6.0,52,0.00,,,0.00,VWS V13.01,2014-01-28 09:32:00,
2014-01-28 03:37:00,40.7,24.9,29.95,North,5,0.0,6.0,53,0.00,,,0.00,VWS V13.01,2014-01-28 09:37:00,
2014-01-28 03:42:00,40.7,24.9,29.95,North,5,0.0,6.0,53,0.00,,,0.00,VWS V13.01,2014-01-28 09:42:00,
2014-01-28 03:47:00,40.6,24.8,29.97,North,5,0.0,6.0,53,0.00,,,0.00,VWS V13.01,2014-01-28 09:47:00,
2014-01-28 03:52:00,40.3,23.1,29.97,North,9,0.0,6.0,50,0.00,,,0.00,VWS V13.01,2014-01-28 09:52:00,
2014-01-28 03:57:00,40.1,23.4,29.97,North,5,0.0,0.0,51,0.00,,,0.00,VWS V13.01,2014-01-28 09:57:00,
2014-01-28 04:02:00,39.9,22.8,29.97,North,5,0.0,3.0,50,0.00,,,0.00,VWS V13.01,2014-01-28 10:02:00,
2014-01-28 04:07:00,39.8,23.2,29.97,North,9,0.0,4.0,51,0.00,,,0.00,VWS V13.01,2014-01-28 10:07:00,
2014-01-28 04:12:00,39.6,22.5,29.97,North,5,0.0,6.0,50,0.00,,,0.00,VWS V13.01,2014-01-28 10:12:00,
2014-01-28 04:17:00,39.6,23.0,29.99,North,5,0.0,6.0,51,0.00,,,0.00,VWS V13.01,2014-01-28 10:17:00,
2014-01-28 04:22:00,39.5,22.4,29.99,North,5,0.0,6.0,50,0.00,,,0.00,VWS V13.01,2014-01-28 10:22:00,
2014-01-28 04:27:00,39.4,22.8,29.99,North,5,0.0,11.0,51,0.00,,,0.00,VWS V13.01,2014-01-28 10:27:00,
2014-01-28 04:32:00,39.3,23.2,29.98,North,5,0.0,0.0,52,0.00,,,0.00,VWS V13.01,2014-01-28 10:32:00,
2014-01-28 04:37:00,39.3,23.2,29.98,North,5,0.0,5.0,52,0.00,,,0.00,VWS V13.01,2014-01-28 10:37:00,
2014-01-28 04:42:00,39.0,22.0,29.98,North,5,1.0,5.0,50,0.00,,,0.00,VWS V13.01,2014-01-28 10:42:00,
2014-01-28 04:47:00,38.8,22.7,30.00,North,5,0.0,6.0,52,0.00,,,0.00,VWS V13.01,2014-01-28 10:47:00,
2014-01-28 04:52:00,38.7,22.6,30.00,North,5,0.0,6.0,52,0.00,,,0.00,VWS V13.01,2014-01-28 10:52:00,
2014-01-28 04:57:00,38.6,22.0,30.00,North,5,0.0,0.0,51,0.00,,,0.00,VWS V13.01,2014-01-28 10:57:00,
2014-01-28 05:02:00,38.4,22.8,29.98,North,5,0.0,1.0,53,0.00,,,0.00,VWS V13.01,2014-01-28 11:02:00,
2014-01-28 05:07:00,38.4,21.4,29.98,NW,319,0.0,11.0,50,0.00,,,0.00,VWS V13.01,2014-01-28 11:07:00,
2014-01-28 05:12:00,38.2,21.7,29.98,North,5,2.0,11.0,51,0.00,,,0.00,VWS V13.01,2014-01-28 11:12:00,
2014-01-28 05:17:00,38.2,21.7,29.99,North,9,0.0,11.0,51,0.00,,,0.00,VWS V13.01,2014-01-28 11:17:00,
2014-01-28 05:22:00,38.2,22.1,29.99,North,5,1.0,11.0,52,0.00,,,0.00,VWS V13.01,2014-01-28 11:22:00,
2014-01-28 05:27:00,38.1,22.0,29.99,North,5,3.0,11.0,52,0.00,,,0.00,VWS V13.01,2014-01-28 11:27:00,
2014-01-28 05:32:00,38.1,22.0,29.99,North,5,0.0,5.0,52,0.00,,,0.00,VWS V13.01,2014-01-28 11:32:00,
2014-01-28 05:37:00,38.0,22.0,29.99,South,191,0.0,6.0,52,0.00,,,0.00,VWS V13.01,2014-01-28 11:37:00,
2014-01-28 05:42:00,38.0,22.4,29.99,North,5,0.0,6.0,53,0.00,,,0.00,VWS V13.01,2014-01-28 11:42:00,
2014-01-28 05:47:00,38.0,22.0,29.99,North,5,0.0,7.0,52,0.00,,,0.00,VWS V13.01,2014-01-28 11:47:00,
2014-01-28 05:52:00,38.0,22.4,29.99,North,9,2.0,7.0,53,0.00,,,0.00,VWS V13.01,2014-01-28 11:52:00,
2014-01-28 05:57:00,37.9,21.9,29.99,North,360,2.0,4.0,52,0.00,,,0.00,VWS V13.01,2014-01-28 11:57:00,
2014-01-28 06:02:00,37.9,20.9,30.00,North,5,0.0,7.0,50,0.00,,,0.00,VWS V13.01,2014-01-28 12:02:00,
2014-01-28 06:07:00,37.9,21.9,30.00,North,360,0.0,7.0,52,0.00,,,0.00,VWS V13.01,2014-01-28 12:07:00,
2014-01-28 06:12:00,37.8,21.3,30.00,North,5,0.0,7.0,51,0.00,,,0.00,VWS V13.01,2014-01-28 12:12:00,
2014-01-28 06:17:00,37.8,21.8,30.01,North,5,0.0,10.0,52,0.00,,,0.00,VWS V13.01,2014-01-28 12:17:00,
2014-01-28 06:22:00,37.7,21.7,30.01,North,5,0.0,10.0,52,0.00,,,0.00,VWS V13.01,2014-01-28 12:22:00,
2014-01-28 06:27:00,37.6,20.7,30.01,North,5,0.0,10.0,50,0.00,,,0.00,VWS V13.01,2014-01-28 12:27:00,
2014-01-28 06:32:00,37.5,20.1,30.02,North,5,0.0,5.0,49,0.00,,,0.00,VWS V13.01,2014-01-28 12:32:00,
2014-01-28 06:37:00,37.4,21.4,30.02,North,360,1.0,5.0,52,0.00,,,0.00,VWS V13.01,2014-01-28 12:37:00,
2014-01-28 06:42:00,37.4,20.9,30.02,North,360,4.0,5.0,51,0.00,,,0.00,VWS V13.01,2014-01-28 12:42:00,
2014-01-28 06:47:00,37.3,19.9,30.03,North,360,0.0,6.0,49,0.00,,,0.00,VWS V13.01,2014-01-28 12:47:00,
2014-01-28 06:52:00,37.2,20.3,30.03,North,5,0.0,6.0,50,0.00,,,0.00,VWS V13.01,2014-01-28 12:52:00,
2014-01-28 06:57:00,37.1,20.7,30.03,North,5,0.0,0.0,51,0.00,,,0.00,VWS V13.01,2014-01-28 12:57:00,
2014-01-28 07:02:00,37.1,20.2,30.03,North,5,0.0,6.0,50,0.00,,,0.00,VWS V13.01,2014-01-28 13:02:00,
2014-01-28 07:07:00,37.0,19.6,30.03,North,360,3.0,7.0,49,0.00,,,0.00,VWS V13.01,2014-01-28 13:07:00,
2014-01-28 07:12:00,36.9,19.5,30.03,North,5,0.0,7.0,49,0.00,,,0.00,VWS V13.01,2014-01-28 13:12:00,
2014-01-28 07:17:00,36.8,19.5,30.03,North,5,0.0,7.0,49,0.00,,,0.00,VWS V13.01,2014-01-28 13:17:00,
2014-01-28 07:22:00,36.8,19.5,30.03,North,5,0.0,7.0,49,0.00,,,0.00,VWS V13.01,2014-01-28 13:22:00,
2014-01-28 07:27:00,36.8,19.0,30.03,North,9,0.0,7.0,48,0.00,,,0.00,VWS V13.01,2014-01-28 13:27:00,
2014-01-28 07:32:00,36.6,18.3,30.05,North,5,4.0,5.0,47,0.00,,,0.00,VWS V13.01,2014-01-28 13:32:00,
2014-01-28 07:37:00,36.5,17.7,30.05,North,5,0.0,6.0,46,0.00,,,0.00,VWS V13.01,2014-01-28 13:37:00,
2014-01-28 07:42:00,36.5,18.2,30.05,North,5,5.0,6.0,47,0.00,,,0.00,VWS V13.01,2014-01-28 13:42:00,
2014-01-28 07:47:00,36.4,17.6,30.06,NNW,327,0.0,6.0,46,0.00,,,0.00,VWS V13.01,2014-01-28 13:47:00,
2014-01-28 07:52:00,36.5,18.7,30.06,NNW,346,0.0,6.0,48,0.00,,,0.00,VWS V13.01,2014-01-28 13:52:00,
2014-01-28 07:57:00,36.6,19.3,30.06,North,360,1.0,1.0,49,0.00,,,0.00,VWS V13.01,2014-01-28 13:57:00,
2014-01-28 08:02:00,36.6,18.3,30.06,North,9,0.0,5.0,47,0.00,,,0.00,VWS V13.01,2014-01-28 14:02:00,
2014-01-28 08:07:00,36.5,18.2,30.06,North,5,0.0,5.0,47,0.00,,,0.00,VWS V13.01,2014-01-28 14:07:00,
2014-01-28 08:12:00,36.4,18.6,30.06,North,5,0.0,5.0,48,0.00,,,0.00,VWS V13.01,2014-01-28 14:12:00,
2014-01-28 08:17:00,36.4,18.6,30.05,NNE,28,0.0,6.0,48,0.00,,,0.00,VWS V13.01,2014-01-28 14:17:00,
2014-01-28 08:22:00,36.3,18.5,30.05,North,5,0.0,6.0,48,0.00,,,0.00,VWS V13.01,2014-01-28 14:22:00,
2014-01-28 08:27:00,36.3,19.0,30.05,North,9,0.0,6.0,49,0.00,,,0.00,VWS V13.01,2014-01-28 14:27:00,
2014-01-28 08:32:00,36.4,19.1,30.05,North,5,0.0,0.0,49,0.00,,,0.00,VWS V13.01,2014-01-28 14:32:00,
2014-01-28 08:37:00,36.5,18.2,30.05,NNE,30,0.0,5.0,47,0.00,,,0.00,VWS V13.01,2014-01-28 14:37:00,
2014-01-28 08:42:00,36.4,18.6,30.05,North,5,0.0,5.0,48,0.00,,,0.00,VWS V13.01,2014-01-28 14:42:00,
2014-01-28 08:47:00,36.3,18.0,30.07,North,360,7.0,7.0,47,0.00,,,0.00,VWS V13.01,2014-01-28 14:47:00,
2014-01-28 08:52:00,36.2,17.9,30.07,North,5,1.0,7.0,47,0.00,,,0.00,VWS V13.01,2014-01-28 14:52:00,
2014-01-28 08:57:00,36.1,17.3,30.07,North,9,0.0,6.0,46,0.00,,,0.00,VWS V13.01,2014-01-28 14:57:00,
2014-01-28 09:02:00,36.0,17.2,30.08,North,5,0.0,10.0,46,0.00,,,0.00,VWS V13.01,2014-01-28 15:02:00,
2014-01-28 09:07:00,36.0,17.2,30.08,North,5,1.0,10.0,46,0.00,,,0.00,VWS V13.01,2014-01-28 15:07:00,
2014-01-28 09:12:00,36.1,17.3,30.08,North,5,0.0,10.0,46,0.00,,,0.00,VWS V13.01,2014-01-28 15:12:00,
2014-01-28 09:17:00,36.3,18.5,30.08,North,360,0.0,10.0,48,0.00,,,0.00,VWS V13.01,2014-01-28 15:17:00,
2014-01-28 09:22:00,36.5,18.2,30.08,North,360,1.0,10.0,47,0.00,,,0.00,VWS V13.01,2014-01-28 15:22:00,
2014-01-28 09:27:00,36.7,16.9,30.08,North,9,0.0,10.0,44,0.00,,,0.00,VWS V13.01,2014-01-28 15:27:00,
2014-01-28 09:30:00,68.7,56.5,29.93,North,0,0.0,0.0,65,0.00,,,0.00,VWS V13.01,2014-01-28 15:30:00,
2014-01-28 09:32:00,36.7,17.4,30.09,North,5,0.0,5.0,45,0.00,,,0.00,VWS V13.01,2014-01-28 15:32:00,
2014-01-28 09:37:00,36.5,16.7,30.09,North,5,0.0,5.0,44,0.00,,,0.00,VWS V13.01,2014-01-28 15:37:00,
2014-01-28 09:42:00,36.4,17.1,30.09,North,9,1.0,5.0,45,0.00,,,0.00,VWS V13.01,2014-01-28 15:42:00,
2014-01-28 09:47:00,36.5,17.2,30.10,North,9,4.0,6.0,45,0.00,,,0.00,VWS V13.01,2014-01-28 15:47:00,
2014-01-28 09:52:00,36.5,17.2,30.10,North,9,0.0,8.0,45,0.00,,,0.00,VWS V13.01,2014-01-28 15:52:00,
2014-01-28 09:57:00,36.6,17.3,30.10,North,5,0.0,0.0,45,0.00,,,0.00,VWS V13.01,2014-01-28 15:57:00,
2014-01-28 10:02:00,36.4,16.6,30.10,North,5,0.0,7.0,44,0.00,,,0.00,VWS V13.01,2014-01-28 16:02:00,
2014-01-28 10:07:00,36.5,18.2,30.10,North,5,0.0,7.0,47,0.00,,,0.00,VWS V13.01,2014-01-28 16:07:00,
2014-01-28 10:12:00,36.5,16.7,30.10,North,5,0.0,7.0,44,0.00,,,0.00,VWS V13.01,2014-01-28 16:12:00,
2014-01-28 10:17:00,36.5,17.2,30.10,North,5,0.0,7.0,45,0.00,,,0.00,VWS V13.01,2014-01-28 16:17:00,
2014-01-28 10:22:00,36.1,15.8,30.10,West,277,0.0,7.0,43,0.00,,,0.00,VWS V13.01,2014-01-28 16:22:00,
2014-01-28 10:27:00,36.1,16.3,30.10,WNW,288,0.0,7.0,44,0.00,,,0.00,VWS V13.01,2014-01-28 16:27:00,
2014-01-28 10:32:00,35.9,15.6,30.10,North,9,0.0,5.0,43,0.00,,,0.00,VWS V13.01,2014-01-28 16:32:00,
2014-01-28 10:37:00,35.8,16.0,30.10,North,5,0.0,5.0,44,0.00,,,0.00,VWS V13.01,2014-01-28 16:37:00,
2014-01-28 10:42:00,35.7,15.4,30.10,North,9,0.0,6.0,43,0.00,,,0.00,VWS V13.01,2014-01-28 16:42:00,
2014-01-28 10:47:00,35.8,15.5,30.08,North,360,0.0,10.0,43,0.00,,,0.00,VWS V13.01,2014-01-28 16:47:00,
2014-01-28 10:52:00,36.0,16.7,30.08,North,9,1.0,10.0,45,0.00,,,0.00,VWS V13.01,2014-01-28 16:52:00,
2014-01-28 10:57:00,36.0,16.2,30.08,North,9,0.0,0.0,44,0.00,,,0.00,VWS V13.01,2014-01-28 16:57:00,
2014-01-28 11:02:00,36.0,16.7,30.07,North,5,2.0,6.0,45,0.00,,,0.00,VWS V13.01,2014-01-28 17:02:00,
2014-01-28 11:07:00,36.1,16.8,30.07,North,350,2.0,6.0,45,0.00,,,0.00,VWS V13.01,2014-01-28 17:07:00,
2014-01-28 11:12:00,36.1,16.8,30.07,NNE,12,0.0,6.0,45,0.00,,,0.00,VWS V13.01,2014-01-28 17:12:00,
2014-01-28 11:17:00,36.2,16.9,30.06,North,9,0.0,9.0,45,0.00,,,0.00,VWS V13.01,2014-01-28 17:17:00,
2014-01-28 11:22:00,36.3,16.0,30.06,North,5,0.0,9.0,43,0.00,,,0.00,VWS V13.01,2014-01-28 17:22:00,
2014-01-28 11:27:00,36.2,15.9,30.06,North,5,0.0,9.0,43,0.00,,,0.00,VWS V13.01,2014-01-28 17:27:00,
2014-01-28 11:32:00,36.2,16.4,30.04,WSW,248,0.0,4.0,44,0.00,,,0.00,VWS V13.01,2014-01-28 17:32:00,
2014-01-28 11:37:00,36.2,16.9,30.04,North,5,0.0,9.0,45,0.00,,,0.00,VWS V13.01,2014-01-28 17:37:00,
2014-01-28 11:42:00,36.1,16.8,30.04,North,5,0.0,9.0,45,0.00,,,0.00,VWS V13.01,2014-01-28 17:42:00,
2014-01-28 11:47:00,35.9,16.6,30.05,North,9,0.0,9.0,45,0.00,,,0.00,VWS V13.01,2014-01-28 17:47:00,
2014-01-28 11:52:00,35.7,18.9,30.05,North,5,2.0,9.0,50,0.00,,,0.00,VWS V13.01,2014-01-28 17:52:00,
2014-01-28 11:57:00,35.1,20.1,30.05,North,9,0.0,1.0,54,0.00,,,0.00,VWS V13.01,2014-01-28 17:57:00,
2014-01-28 12:02:00,34.7,23.0,30.05,North,5,0.0,0.0,62,0.00,,,0.00,VWS V13.01,2014-01-28 18:02:00,
2014-01-28 12:07:00,34.1,24.0,30.05,North,5,0.0,7.0,66,0.00,,,0.00,VWS V13.01,2014-01-28 18:07:00,
2014-01-28 12:12:00,33.7,25.3,30.05,North,5,0.0,7.0,71,0.00,,,0.00,VWS V13.01,2014-01-28 18:12:00,
2014-01-28 12:17:00,33.2,26.1,30.06,North,360,0.0,7.0,75,0.00,,,0.00,VWS V13.01,2014-01-28 18:17:00,
2014-01-28 12:22:00,32.9,26.2,30.06,North,5,0.0,7.0,76,0.00,,,0.00,VWS V13.01,2014-01-28 18:22:00,
2014-01-28 12:27:00,32.8,27.3,30.06,North,9,0.0,7.0,80,0.00,,,0.00,VWS V13.01,2014-01-28 18:27:00,
2014-01-28 12:32:00,32.7,27.2,30.04,North,9,0.0,0.0,80,0.00,,,0.00,VWS V13.01,2014-01-28 18:32:00,
2014-01-28 12:37:00,32.6,25.6,30.04,South,171,0.0,2.0,75,0.00,,,0.00,VWS V13.01,2014-01-28 18:37:00,
2014-01-28 12:42:00,32.6,25.9,30.04,North,9,0.0,6.0,76,0.00,,,0.00,VWS V13.01,2014-01-28 18:42:00,
2014-01-28 12:47:00,32.6,26.2,30.03,North,5,0.0,6.0,77,0.00,,,0.00,VWS V13.01,2014-01-28 18:47:00,
2014-01-28 12:52:00,32.4,26.6,30.03,North,5,0.0,6.0,79,0.01,,,0.01,VWS V13.01,2014-01-28 18:52:00,
2014-01-28 12:57:00,32.0,27.1,30.03,North,5,0.0,0.0,82,0.01,,,0.01,VWS V13.01,2014-01-28 18:57:00,
2014-01-28 13:02:00,31.7,26.8,30.03,North,350,0.0,5.0,82,0.01,,,0.01,VWS V13.01,2014-01-28 19:02:00,
2014-01-28 13:07:00,31.5,26.6,30.03,North,5,3.0,6.0,82,0.01,,,0.01,VWS V13.01,2014-01-28 19:07:00,
2014-01-28 13:12:00,31.4,26.5,30.03,North,5,1.0,6.0,82,0.01,,,0.01,VWS V13.01,2014-01-28 19:12:00,
2014-01-28 13:17:00,31.3,26.8,30.03,North,9,0.0,6.0,83,0.02,,,0.02,VWS V13.01,2014-01-28 19:17:00,
2014-01-28 13:22:00,31.3,27.3,30.03,North,5,0.0,6.0,85,0.02,,,0.02,VWS V13.01,2014-01-28 19:22:00,
2014-01-28 13:27:00,31.3,27.6,30.03,North,9,0.0,6.0,86,0.02,,,0.02,VWS V13.01,2014-01-28 19:27:00,
2014-01-28 13:32:00,31.3,27.9,30.04,North,360,0.0,5.0,87,0.02,,,0.02,VWS V13.01,2014-01-28 19:32:00,
2014-01-28 13:37:00,31.2,28.1,30.04,North,5,0.0,5.0,88,0.03,,,0.03,VWS V13.01,2014-01-28 19:37:00,
2014-01-28 13:42:00,31.1,28.0,30.04,North,5,0.0,5.0,88,0.03,,,0.03,VWS V13.01,2014-01-28 19:42:00,
2014-01-28 13:47:00,30.7,27.6,30.04,North,5,0.0,5.0,88,0.03,,,0.03,VWS V13.01,2014-01-28 19:47:00,
2014-01-28 13:52:00,30.4,27.3,30.04,North,5,0.0,5.0,88,0.03,,,0.03,VWS V13.01,2014-01-28 19:52:00,
2014-01-28 13:57:00,30.3,27.7,30.04,North,10,0.0,0.0,90,0.03,,,0.03,VWS V13.01,2014-01-28 19:57:00,
2014-01-28 14:02:00,30.1,27.3,30.03,North,9,0.0,4.0,89,0.02,,,0.03,VWS V13.01,2014-01-28 20:02:00,
2014-01-28 14:07:00,29.9,27.1,30.03,North,9,0.0,4.0,89,0.02,,,0.03,VWS V13.01,2014-01-28 20:07:00,
2014-01-28 14:12:00,29.8,27.2,30.03,North,5,0.0,7.0,90,0.02,,,0.03,VWS V13.01,2014-01-28 20:12:00,
2014-01-28 14:17:00,29.7,26.9,30.03,North,360,3.0,7.0,89,0.02,,,0.03,VWS V13.01,2014-01-28 20:17:00,
2014-01-28 14:22:00,29.8,27.2,30.03,North,5,0.0,7.0,90,0.02,,,0.03,VWS V13.01,2014-01-28 20:22:00,
2014-01-28 14:27:00,29.8,27.5,30.03,North,9,0.0,7.0,91,0.02,,,0.03,VWS V13.01,2014-01-28 20:27:00,
2014-01-28 14:32:00,29.9,27.6,30.03,North,9,5.0,7.0,91,0.01,,,0.03,VWS V13.01,2014-01-28 20:32:00,
2014-01-28 14:37:00,30.0,27.7,30.03,North,5,0.0,7.0,91,0.01,,,0.03,VWS V13.01,2014-01-28 20:37:00,
2014-01-28 14:42:00,30.1,28.1,30.03,North,355,0.0,7.0,92,0.01,,,0.03,VWS V13.01,2014-01-28 20:42:00,
2014-01-28 14:47:00,30.2,28.2,30.03,North,360,0.0,7.0,92,0.01,,,0.03,VWS V13.01,2014-01-28 20:47:00,
2014-01-28 14:52:00,30.0,27.7,30.03,North,5,0.0,7.0,91,0.01,,,0.03,VWS V13.01,2014-01-28 20:52:00,
2014-01-28 14:57:00,29.9,27.9,30.03,North,360,2.0,2.0,92,0.01,,,0.03,VWS V13.01,2014-01-28 20:57:00,
2014-01-28 15:02:00,30.1,28.3,30.02,North,9,0.0,4.0,93,0.00,,,0.03,VWS V13.01,2014-01-28 21:02:00,
2014-01-28 15:07:00,30.3,28.5,30.02,North,360,0.0,4.0,93,0.00,,,0.03,VWS V13.01,2014-01-28 21:07:00,
2014-01-28 15:12:00,30.3,28.5,30.02,North,5,0.0,4.0,93,0.00,,,0.03,VWS V13.01,2014-01-28 21:12:00,
2014-01-28 15:17:00,30.5,29.0,30.01,North,9,0.0,4.0,94,0.00,,,0.03,VWS V13.01,2014-01-28 21:17:00,
2014-01-28 15:22:00,30.6,29.1,30.01,North,5,0.0,4.0,94,0.01,,,0.04,VWS V13.01,2014-01-28 21:22:00,
2014-01-28 15:27:00,30.7,29.2,30.01,North,5,0.0,4.0,94,0.01,,,0.04,VWS V13.01,2014-01-28 21:27:00,
2014-01-28 15:32:00,30.7,29.2,30.01,North,9,0.0,0.0,94,0.01,,,0.04,VWS V13.01,2014-01-28 21:32:00,
2014-01-28 15:37:00,30.7,29.2,30.01,North,9,0.0,0.0,94,0.02,,,0.05,VWS V13.01,2014-01-28 21:37:00,
2014-01-28 15:42:00,30.6,28.8,30.01,North,5,0.0,0.0,93,0.02,,,0.05,VWS V13.01,2014-01-28 21:42:00,
2014-01-28 15:47:00,30.6,29.1,30.02,North,5,0.0,0.0,94,0.02,,,0.05,VWS V13.01,2014-01-28 21:47:00,
2014-01-28 15:52:00,30.7,29.2,30.02,North,10,0.0,0.0,94,0.02,,,0.05,VWS V13.01,2014-01-28 21:52:00,
2014-01-28 15:57:00,30.7,29.2,30.02,North,5,0.0,0.0,94,0.02,,,0.05,VWS V13.01,2014-01-28 21:57:00,
2014-01-28 16:02:00,30.7,29.2,30.04,North,5,0.0,0.0,94,0.02,,,0.05,VWS V13.01,2014-01-28 22:02:00,
2014-01-28 16:07:00,30.5,28.7,30.04,North,5,0.0,0.0,93,0.02,,,0.05,VWS V13.01,2014-01-28 22:07:00,
2014-01-28 16:12:00,30.3,28.5,30.04,North,9,0.0,0.0,93,0.02,,,0.05,VWS V13.01,2014-01-28 22:12:00,
2014-01-28 16:17:00,30.3,28.5,30.04,North,5,0.0,0.0,93,0.02,,,0.05,VWS V13.01,2014-01-28 22:17:00,
2014-01-28 16:22:00,30.4,28.9,30.04,North,5,0.0,0.0,94,0.02,,,0.05,VWS V13.01,2014-01-28 22:22:00,
2014-01-28 16:27:00,30.5,29.0,30.04,North,9,0.0,0.0,94,0.02,,,0.05,VWS V13.01,2014-01-28 22:27:00,
2014-01-28 16:32:00,30.7,29.4,30.04,North,5,0.0,0.0,95,0.01,,,0.05,VWS V13.01,2014-01-28 22:32:00,
2014-01-28 16:37:00,30.8,29.5,30.04,North,5,0.0,0.0,95,0.01,,,0.05,VWS V13.01,2014-01-28 22:37:00,
2014-01-28 16:42:00,30.9,29.6,30.04,North,5,0.0,0.0,95,0.01,,,0.05,VWS V13.01,2014-01-28 22:42:00,
2014-01-28 16:47:00,31.0,29.7,30.05,North,5,0.0,0.0,95,0.02,,,0.06,VWS V13.01,2014-01-28 22:47:00,
2014-01-28 16:52:00,31.0,29.7,30.05,North,5,0.0,0.0,95,0.02,,,0.06,VWS V13.01,2014-01-28 22:52:00,
2014-01-28 16:57:00,31.1,29.8,30.05,North,5,0.0,0.0,95,0.02,,,0.06,VWS V13.01,2014-01-28 22:57:00,
2014-01-28 17:02:00,31.2,29.9,30.05,North,5,0.0,0.0,95,0.02,,,0.07,VWS V13.01,2014-01-28 23:02:00,
2014-01-28 17:07:00,31.2,29.9,30.05,North,5,0.0,0.0,95,0.03,,,0.08,VWS V13.01,2014-01-28 23:07:00,
2014-01-28 17:12:00,31.2,29.9,30.05,North,5,0.0,0.0,95,0.03,,,0.08,VWS V13.01,2014-01-28 23:12:00,
2014-01-28 17:17:00,31.2,29.9,30.06,North,9,0.0,0.0,95,0.03,,,0.08,VWS V13.01,2014-01-28 23:17:00,
2014-01-28 17:22:00,31.3,30.0,30.06,North,5,0.0,0.0,95,0.04,,,0.09,VWS V13.01,2014-01-28 23:22:00,
2014-01-28 17:27:00,31.3,30.0,30.06,North,5,0.0,0.0,95,0.04,,,0.09,VWS V13.01,2014-01-28 23:27:00,
2014-01-28 17:32:00,31.4,30.1,30.07,North,5,0.0,0.0,95,0.04,,,0.10,VWS V13.01,2014-01-28 23:32:00,
2014-01-28 17:38:00,31.4,30.1,30.07,North,5,0.0,0.0,95,0.05,,,0.10,VWS V13.01,2014-01-28 23:38:00,
2014-01-28 17:43:00,31.5,30.2,30.07,North,5,0.0,0.0,95,0.07,,,0.12,VWS V13.01,2014-01-28 23:43:00,
2014-01-28 17:48:00,31.5,30.2,30.07,North,5,0.0,0.0,95,0.08,,,0.13,VWS V13.01,2014-01-28 23:48:00,
2014-01-28 17:53:00,31.5,30.2,30.07,North,5,0.0,0.0,95,0.08,,,0.13,VWS V13.01,2014-01-28 23:53:00,
2014-01-28 17:58:00,31.5,30.2,30.07,North,5,0.0,0.0,95,0.09,,,0.14,VWS V13.01,2014-01-28 23:58:00,
2014-01-28 18:03:00,31.5,30.2,30.06,North,5,0.0,0.0,95,0.07,,,0.14,VWS V13.01,2014-01-29 00:03:00,
2014-01-28 18:08:00,31.5,30.2,30.06,North,5,0.0,0.0,95,0.07,,,0.14,VWS V13.01,2014-01-29 00:08:00,
2014-01-28 18:13:00,31.5,30.2,30.06,North,5,0.0,0.0,95,0.07,,,0.14,VWS V13.01,2014-01-29 00:13:00,
2014-01-28 18:18:00,31.5,30.2,30.07,North,5,0.0,0.0,95,0.07,,,0.14,VWS V13.01,2014-01-29 00:18:00,
2014-01-28 18:23:00,31.5,30.2,30.07,North,5,0.0,0.0,95,0.07,,,0.14,VWS V13.01,2014-01-29 00:23:00,
2014-01-28 18:28:00,31.5,30.2,30.07,North,5,0.0,0.0,95,0.07,,,0.14,VWS V13.01,2014-01-29 00:28:00,
2014-01-28 18:29:00,31.5,30.2,30.07,North,5,0.0,0.0,95,0.07,,,0.14,VWS V13.01,2014-01-29 00:29:00,
2014-01-28 18:34:00,31.5,30.2,30.07,North,5,0.0,0.0,95,0.05,,,0.14,VWS V13.01,2014-01-29 00:34:00,
2014-01-28 18:39:00,31.5,30.2,30.07,North,5,0.0,0.0,95,0.05,,,0.14,VWS V13.01,2014-01-29 00:39:00,
2014-01-28 18:44:00,31.5,30.2,30.07,North,5,0.0,0.0,95,0.05,,,0.14,VWS V13.01,2014-01-29 00:44:00,
2014-01-28 18:49:00,31.5,30.2,30.07,North,5,0.0,0.0,95,0.05,,,0.14,VWS V13.01,2014-01-29 00:49:00,
2014-01-28 18:54:00,31.5,30.2,30.07,North,5,0.0,0.0,95,0.05,,,0.14,VWS V13.01,2014-01-29 00:54:00,
2014-01-28 18:59:00,0.0,0.0,30.08,North,0,0.0,0.0,0,0.05,,,0.14,VWS V13.01,2014-01-29 00:59:00,
2014-01-28 19:04:00,0.0,0.0,30.08,North,0,0.0,0.0,0,0.00,,,0.14,VWS V13.01,2014-01-29 01:04:00,
2014-01-28 19:09:00,0.0,0.0,30.08,North,0,0.0,0.0,0,0.00,,,0.14,VWS V13.01,2014-01-29 01:09:00,
2014-01-28 19:14:00,0.0,0.0,30.08,North,0,0.0,0.0,0,0.00,,,0.14,VWS V13.01,2014-01-29 01:14:00,
2014-01-28 19:19:00,0.0,0.0,30.08,North,0,0.0,0.0,0,0.00,,,0.14,VWS V13.01,2014-01-29 01:19:00,
2014-01-28 19:24:00,0.0,0.0,30.08,North,0,0.0,0.0,0,0.00,,,0.14,VWS V13.01,2014-01-29 01:24:00,
2014-01-28 19:29:00,0.0,0.0,30.09,North,0,0.0,0.0,0,0.00,,,0.14,VWS V13.01,2014-01-29 01:29:00,
2014-01-28 19:34:00,0.0,0.0,30.09,North,0,0.0,0.0,0,0.00,,,0.14,VWS V13.01,2014-01-29 01:34:00,
2014-01-28 19:39:00,0.0,0.0,30.09,North,0,0.0,0.0,0,0.00,,,0.14,VWS V13.01,2014-01-29 01:39:00,
2014-01-28 19:44:00,0.0,0.0,30.10,North,0,0.0,0.0,0,0.00,,,0.14,VWS V13.01,2014-01-29 01:44:00,
2014-01-28 19:49:00,0.0,0.0,30.10,North,0,0.0,0.0,0,0.00,,,0.14,VWS V13.01,2014-01-29 01:49:00,
2014-01-28 19:54:00,0.0,0.0,30.10,North,0,0.0,0.0,0,0.00,,,0.14,VWS V13.01,2014-01-29 01:54:00,
2014-01-28 19:59:00,0.0,0.0,30.11,North,0,0.0,0.0,0,0.00,,,0.14,VWS V13.01,2014-01-29 01:59:00,
2014-01-28 20:04:00,0.0,0.0,30.11,North,0,0.0,0.0,0,0.00,,,0.14,VWS V13.01,2014-01-29 02:04:00,
2014-01-28 20:09:00,0.0,0.0,30.11,North,0,0.0,0.0,0,0.00,,,0.14,VWS V13.01,2014-01-29 02:09:00,
2014-01-28 20:14:00,0.0,0.0,30.11,North,0,0.0,0.0,0,0.00,,,0.14,VWS V13.01,2014-01-29 02:14:00,
2014-01-28 20:19:00,0.0,0.0,30.11,North,0,0.0,0.0,0,0.00,,,0.14,VWS V13.01,2014-01-29 02:19:00,
2014-01-28 20:24:00,0.0,0.0,30.11,North,0,0.0,0.0,0,0.00,,,0.14,VWS V13.01,2014-01-29 02:24:00,
2014-01-28 20:29:00,0.0,0.0,30.10,North,0,0.0,0.0,0,0.00,,,0.14,VWS V13.01,2014-01-29 02:29:00,
2014-01-28 20:34:00,0.0,0.0,30.10,North,0,0.0,0.0,0,0.00,,,0.14,VWS V13.01,2014-01-29 02:34:00,
2014-01-28 20:39:00,0.0,0.0,30.10,North,0,0.0,0.0,0,0.00,,,0.14,VWS V13.01,2014-01-29 02:39:00,
2014-01-28 20:44:00,0.0,0.0,30.10,North,0,0.0,0.0,0,0.00,,,0.14,VWS V13.01,2014-01-29 02:44:00,
2014-01-28 20:49:00,0.0,0.0,30.10,North,0,0.0,0.0,0,0.00,,,0.14,VWS V13.01,2014-01-29 02:49:00,
2014-01-28 20:54:00,0.0,0.0,30.10,North,0,0.0,0.0,0,0.00,,,0.14,VWS V13.01,2014-01-29 02:54:00,
2014-01-28 20:59:00,0.0,0.0,30.12,North,0,0.0,0.0,0,0.00,,,0.14,VWS V13.01,2014-01-29 02:59:00,
2014-01-28 21:04:00,0.0,0.0,30.12,North,0,0.0,0.0,0,0.00,,,0.14,VWS V13.01,2014-01-29 03:04:00,
2014-01-28 21:09:00,0.0,0.0,30.12,North,0,0.0,0.0,0,0.00,,,0.14,VWS V13.01,2014-01-29 03:09:00,
2014-01-28 21:14:00,0.0,0.0,30.13,North,0,0.0,0.0,0,0.00,,,0.14,VWS V13.01,2014-01-29 03:14:00,
2014-01-28 21:19:00,0.0,0.0,30.13,North,0,0.0,0.0,0,0.00,,,0.14,VWS V13.01,2014-01-29 03:19:00,
2014-01-28 21:24:00,0.0,0.0,30.13,North,0,0.0,0.0,0,0.00,,,0.14,VWS V13.01,2014-01-29 03:24:00,
2014-01-28 21:29:00,0.0,0.0,30.13,North,0,0.0,0.0,0,0.00,,,0.14,VWS V13.01,2014-01-29 03:29:00,
2014-01-28 21:34:00,0.0,0.0,30.13,North,0,0.0,0.0,0,0.00,,,0.14,VWS V13.01,2014-01-29 03:34:00,
2014-01-28 21:39:00,0.0,0.0,30.13,North,0,0.0,0.0,0,0.00,,,0.14,VWS V13.01,2014-01-29 03:39:00,
2014-01-28 21:44:00,0.0,0.0,30.12,North,0,0.0,0.0,0,0.00,,,0.14,VWS V13.01,2014-01-29 03:44:00,
2014-01-28 21:49:00,0.0,0.0,30.12,North,0,0.0,0.0,0,0.00,,,0.14,VWS V13.01,2014-01-29 03:49:00,
2014-01-28 21:54:00,0.0,0.0,30.12,North,0,0.0,0.0,0,0.00,,,0.14,VWS V13.01,2014-01-29 03:54:00,
2014-01-28 21:59:00,0.0,0.0,30.14,North,0,0.0,0.0,0,0.00,,,0.14,VWS V13.01,2014-01-29 03:59:00,
2014-01-28 22:04:00,0.0,0.0,30.14,North,0,0.0,0.0,0,0.00,,,0.14,VWS V13.01,2014-01-29 04:04:00,
2014-01-28 22:09:00,0.0,0.0,30.14,North,0,0.0,0.0,0,0.00,,,0.14,VWS V13.01,2014-01-29 04:09:00,
2014-01-28 22:14:00,0.0,0.0,30.15,North,0,0.0,0.0,0,0.00,,,0.14,VWS V13.01,2014-01-29 04:14:00,
2014-01-28 22:19:00,0.0,0.0,30.15,North,0,0.0,0.0,0,0.00,,,0.14,VWS V13.01,2014-01-29 04:19:00,
2014-01-28 22:24:00,0.0,0.0,30.15,North,0,0.0,0.0,0,0.00,,,0.14,VWS V13.01,2014-01-29 04:24:00,
2014-01-28 22:29:00,0.0,0.0,30.15,North,0,0.0,0.0,0,0.00,,,0.14,VWS V13.01,2014-01-29 04:29:00,
2014-01-28 22:34:00,0.0,0.0,30.15,North,0,0.0,0.0,0,0.00,,,0.14,VWS V13.01,2014-01-29 04:34:00,
2014-01-28 22:39:00,0.0,0.0,30.15,North,0,0.0,0.0,0,0.00,,,0.14,VWS V13.01,2014-01-29 04:39:00,
2014-01-28 22:44:00,0.0,0.0,30.15,North,0,0.0,0.0,0,0.00,,,0.14,VWS V13.01,2014-01-29 04:44:00,
2014-01-28 22:49:00,0.0,0.0,30.15,North,0,0.0,0.0,0,0.00,,,0.14,VWS V13.01,2014-01-29 04:49:00,
2014-01-28 22:54:00,0.0,0.0,30.15,North,0,0.0,0.0,0,0.00,,,0.14,VWS V13.01,2014-01-29 04:54:00,
2014-01-28 22:59:00,0.0,0.0,30.14,North,0,0.0,0.0,0,0.00,,,0.14,VWS V13.01,2014-01-29 04:59:00,
2014-01-28 23:01:00,0.0,0.0,30.14,North,0,0.0,0.0,0,0.00,,,0.14,VWS V13.01,2014-01-29 05:01:00,
2014-01-28 23:02:00,0.0,0.0,30.14,North,0,0.0,0.0,0,0.00,,,0.14,VWS V13.01,2014-01-29 05:02:00,
2014-01-28 23:07:00,0.0,0.0,30.14,North,0,0.0,0.0,0,0.00,,,0.14,VWS V13.01,2014-01-29 05:07:00,
2014-01-28 23:12:00,0.0,0.0,30.14,North,0,0.0,0.0,0,0.00,,,0.14,VWS V13.01,2014-01-29 05:12:00,
2014-01-28 23:17:00,0.0,0.0,30.14,North,0,0.0,0.0,0,0.00,,,0.14,VWS V13.01,2014-01-29 05:17:00,
2014-01-28 23:22:00,0.0,0.0,30.14,North,0,0.0,0.0,0,0.00,,,0.14,VWS V13.01,2014-01-29 05:22:00,
2014-01-28 23:27:00,0.0,0.0,30.14,North,0,0.0,0.0,0,0.00,,,0.14,VWS V13.01,2014-01-29 05:27:00,
2014-01-28 23:32:00,0.0,0.0,30.14,North,0,0.0,0.0,0,0.00,,,0.14,VWS V13.01,2014-01-29 05:32:00,
2014-01-28 23:37:00,0.0,0.0,30.14,North,0,0.0,0.0,0,0.00,,,0.14,VWS V13.01,2014-01-29 05:37:00,
2014-01-28 23:42:00,0.0,0.0,30.14,North,0,0.0,0.0,0,0.00,,,0.14,VWS V13.01,2014-01-29 05:42:00,
2014-01-28 23:47:00,0.0,0.0,30.14,North,0,0.0,0.0,0,0.00,,,0.14,VWS V13.01,2014-01-29 05:47:00,
2014-01-28 23:52:00,0.0,0.0,30.14,North,0,0.0,0.0,0,0.00,,,0.14,VWS V13.01,2014-01-29 05:52:00,
2014-01-28 23:57:00,0.0,0.0,30.14,North,0,0.0,0.0,0,0.00,,,0.14,VWS V13.01,2014-01-29 05:57:00,